Location: Seven Kings
(51.5667°N, 0.1000°E)
Time: 03:00:06
(UTC+00:00)

SJ 16-02 - Pass Details

Date: 29 October 2020
Orbit: 605 x 617 km, 75.0° (Epoch: 27 November)

Event Time Altitude Azimuth Distance (km) Brightness Sun altitude
Rises 18:28:58 0° 345° (NNW) 2,898 5.0 -17.8°
Reaches altitude 10° 18:31:58 10° 6° (N) 1,990 3.9 -18.3°
Enters shadow 18:33:41 15° 28° (NNE) 1,662 3.3 -18.6°
